RH
60 69 62 51 48 47 53 53 67 74 93 100 98 90 73 52 50 38 30 26 24 22 22 26 30 41 36 54 75 88 95 100
60 71 71 68 75 89 100 84 86 97 100 100 100 99 75 70 63 64 50 39 39 38 34 70 87 65 47 41 44 62 81 82
75 81 80 74 71 86 94 100 100 100 100 100 100 100 100 75 83 100 100 100 100 100 100 100 100 100 93 77 81 70 70 80
85 72 78 72 63 61 68 71 69 95 100 100 100 100 100 84 75 74 80 100 100 100 100 100 100 100 100 100 100 100 100 100
92 95 83 88 68 59 65 69 68 92 96 100 100 100 100 97 89 77 78 80 91 100 100 100 100 100 100 100 100 100 100 100
63 62 64 84 80 66 63 64 97 100 90 92 94 93 84 90 96 79 78 85 82 78 91 95 98 96 92 92 96 100 100 100
63 57 48 55 80 68 70 71 76 97 82 86 89 90 86 70 64 72 73 89 97 90 88 83 82 84 83 86 94 99 100 100
50 45 57 94 98 75 100 78 70 78 74 73 82 89 77 76 79 59 73 71 74 88 89 83 68 66 71 73 85 94 88 94
42 65 74 75 98 100 100 100 94 100 100 100 100 100 100 100 100 100 100 99 92 90 83 97 87 96 100 100 100 96 100 86
67 100 100 99 74 80 96 100 100 100 100 100 100 100 100 100 100 100 90 83 76 72 67 100 100 100 100 100 88 83 88 78
100 100 100 100 97 91 100 100 100 100 96 100 100 100 100 100 100 100 100 92 99 100 100 100 95 83 95 91 99 94 79 73
100 100 100 100 100 100 100 100 100 100 100 100 100 100 100 100 97 100 100 100 100 100 100 96 100 100 100 100 100 97 76 77
100 100 100 100 100 100 100 100 100 100 100 100 100 100 100 100 100 100 98 100 100 100 100 100 100 100 100 100 100 100 100 100
100 100 100 100 100 100 100 100 100 100 98 80 83 94 96 95 95 98 98 100 100 100 100 100 100 100 100 100 100 100 100 100
100 94 100 100 99 100 96 76 78 83 78 60 52 43 40 40 43 59 66 96 100 100 100 100 100 100 100 100 100 100 100 100
100 91 68 47 37 38 48 49 46 49 48 41 33 32 36 39 43 47 50 61 82 100 100 100 100 100 100 100 100 100 100 98
89 64 54 51 41 34 33 36 38 34 32 29 31 32 35 37 40 47 59 69 72 96 100 100 100 100 100 100 100 95 100 100
56 50 33 30 30 33 33 30 26 26 24 22 23 28 29 32 35 42 51 56 73 88 97 100 100 100 100 100 100 100 100 100
38 28 30 31 27 22 20 21 18 15 18 18 18 19 21 25 30 38 50 57 67 84 95 100 100 100 100 100 100 100 100 100
Wind_Speed
73 75 74 71 70 69 66 61 57 54 52 54 51 50 51 51 49 47 44 47 47 47 49 49 49 49 52 51 49 52 54 55
77 79 69 71 70 64 61 59 59 55 57 57 56 54 53 54 50 49 49 46 44 48 49 51 55 53 54 55 55 56 57 60
82 72 70 74 71 65 65 62 58 58 61 62 59 58 55 55 50 53 52 52 52 51 54 53 54 57 57 58 60 62 63 63
84 78 74 75 74 69 69 68 69 67 65 63 64 63 59 57 55 56 57 53 52 52 54 53 55 56 57 57 59 63 67 69
83 85 76 69 77 73 70 71 70 72 65 64 65 63 64 63 60 59 58 59 59 58 58 59 60 61 63 66 67 67 69 73
91 93 82 73 74 75 69 69 71 71 67 67 70 73 67 64 63 60 62 63 63 65 68 70 70 69 71 72 70 71 73 73
93 92 99 81 73 77 70 70 71 71 72 73 72 74 66 64 63 63 61 63 67 71 72 71 72 73 74 74 75 77 79 78
94 88 81 78 77 72 77 73 73 74 73 71 72 75 70 72 71 69 67 68 67 70 73 76 74 73 75 77 81 83 82 81
78 77 83 77 73 81 76 83 79 77 78 77 78 80 75 79 79 74 72 72 71 73 75 78 82 83 84 87 91 87 88 89
74 78 81 86 85 81 79 84 87 86 87 87 85 84 84 88 88 84 85 83 85 82 80 80 83 88 93 95 93 92 92 92
74 81 84 100 98 96 86 91 96 94 93 94 95 92 95 96 95 98 92 90 84 84 85 91 98 97 94 95 97 97 98 96
89 99 104 99 106 102 100 97 98 100 104 106 109 110 110 108 101 100 99 100 101 95 98 98 97 102 97 98 97 101 100 99
100 102 113 110 108 111 111 106 114 115 112 114 118 118 116 113 111 105 105 104 102 106 105 106 105 101 100 103 99 101 97 96
113 116 112 118 127 122 121 126 129 133 131 130 130 131 131 122 119 115 109 107 108 108 108 106 104 104 105 107 105 103 99 97
123 127 123 126 134 136 134 131 131 135 133 127 121 117 112 107 103 104 107 107 110 110 110 110 105 104 103 108 103 97 98 94
132 135 136 127 118 118 120 116 113 114 113 111 110 106 103 104 103 99 99 99 102 104 104 102 101 97 96 94 93 95 97 96
130 126 124 120 114 110 110 109 105 103 101 98 99 97 96 94 93 91 92 93 93 91 94 97 94 94 93 93 93 94 94 94
112 112 110 104 97 95 94 95 93 91 88 86 85 85 84 85 85 85 85 84 85 85 87 85 88 88 88 89 91 89 91 91
103 98 93 88 86 84 81 81 80 78 76 77 75 75 73 74 75 76 78 78 78 81 83 83 84 84 85 86 91 90 92 88
Wind_Direction
291 291 294 297 296 297 295 295 292 292 287 284 282 282 288 292 290 287 287 278 275 274 274 272 275 279 280 280 279 277 278 276
288 292 296 295 294 293 290 292 291 288 283 281 280 280 287 290 289 284 279 276 277 276 276 277 276 276 276 277 277 277 276 276
287 288 295 294 294 291 290 289 288 286 282 280 278 278 283 285 285 283 284 284 282 281 281 283 279 279 279 277 275 276 278 280
289 286 294 292 293 292 288 286 287 284 280 279 279 280 282 283 284 282 285 284 281 278 277 278 278 278 278 278 280 281 281 282
288 290 293 286 290 291 286 283 282 279 278 280 280 280 281 285 283 284 281 282 281 278 274 276 278 280 281 281 282 284 285 284
288 290 290 285 285 286 284 285 282 279 279 279 280 281 281 284 282 283 282 279 282 283 282 281 281 283 285 285 286 286 285 283
286 285 287 282 278 284 281 282 279 277 280 280 279 279 279 279 282 282 280 280 278 280 283 284 284 283 284 287 286 287 288 287
286 287 286 282 277 282 272 278 280 276 279 280 277 277 278 279 282 284 281 281 280 280 282 283 282 284 285 286 287 287 287 287
282 283 286 284 279 278 273 275 283 282 282 282 282 279 277 277 282 282 280 277 280 279 282 285 287 286 285 287 287 285 286 287
285 272 278 284 283 282 279 272 277 276 277 278 279 280 280 282 280 280 278 278 279 278 276 274 278 281 282 286 286 284 286 284
271 271 273 281 282 283 279 278 279 277 276 274 277 277 281 280 278 278 279 277 275 273 271 276 280 282 284 285 285 285 286 288
266 276 279 278 281 279 277 277 277 276 278 277 276 278 280 281 280 278 276 275 276 275 278 281 283 285 289 289 288 288 289 289
268 270 276 276 275 275 275 271 276 276 276 277 277 275 278 279 279 278 275 274 275 275 276 277 281 283 285 286 283 285 286 288
268 269 269 272 274 271 269 271 272 275 275 275 274 272 271 274 275 277 272 271 272 274 274 277 280 280 277 278 279 283 284 285
272 273 274 273 271 272 273 275 273 273 276 275 275 274 273 273 271 270 269 268 270 272 272 274 276 275 274 275 279 282 283 280
274 275 277 277 276 275 275 275 275 275 275 275 274 273 272 271 271 270 269 268 268 269 270 271 272 274 274 273 277 276 277 280
274 275 277 277 277 279 279 279 277 276 275 273 272 270 269 268 269 267 267 267 268 267 267 268 270 270 272 274 274 276 277 279
275 276 279 281 282 280 279 278 278 276 275 272 270 268 267 266 266 265 265 265 265 264 266 265 265 267 270 271 273 274 274 278
280 281 283 283 281 280 279 277 276 275 272 270 269 268 266 264 263 262 261 261 260 258 260 261 262 265 267 269 270 271 274 278